Notices

What's New in latest Release from April 7th, 2021:

- Updated Glossary, including Speed of Maximum Gust, and Total Hourly Precipitation

- Updated national and regional climate services offices contacts and prices information

- Addition of station inventory lists for 1981-2010, 1971-2000, and 1961-1990 Normals.

If you haven't already, please take our survey and provide feedback about our website: https://eccc.sondage-survey.ca/f/LanguageSelection.aspx?s=442ca660-fcf1-47c0-95a9-59707d6fd709

Hourly Data Report for March 07, 2017

MIRAMICHI RCS
NEW BRUNSWICK

47°00'34.000" N
65°27'54.000" W
33.00 m
8100989
71744
ACQ

Download Data

Hourly Data (March 2017)
Hourly Data Report for March 7, 2017
TIME
LST
Temp Definition
°C
Dew Point Definition
°C
Rel Hum Definition
%
Precip. Amount Definition
mm

Wind Dir Definition
10's deg

Wind Spd Definition
km/h
Visibility Definition
km
Stn Press Definition
kPa
Hmdx Definition


Wind Chill Definition


Weather Definition


00:00 -10.2 -12.1 86 0.0   0   102.66     LegendNANA
01:00 -9.4 -11.7 83 0.0 24 3   102.68   -11 LegendNANA
02:00 -12.2 -14.1 85 0.0   0   102.71     LegendNANA
03:00 -12.4 -13.9 88 0.0 0 1   102.64   -13 LegendNANA
04:00 -13.4 -15.2 86 0.0   0   102.66     LegendNANA
05:00 -13.7 -15.7 85 0.0   0   102.66     LegendNANA
06:00 -13.8 -15.6 86 0.0   0   102.74     LegendNANA
07:00 -13.8 -15.8 85 0.0   0   102.72     LegendNANA
08:00 -12.7 -15.1 82 0.0   0   102.71     LegendNANA
09:00 -8.6 -11.8 78 0.0 27 5   102.70   -11 LegendNANA
10:00 -4.0 -10.7 60 0.0 25 4   102.67   -6 LegendNANA
11:00 -1.1 -11.6 45 0.0 21 14   102.59   -6 LegendNANA
12:00 1.2 -11.0 40 0.0 22 20   102.51     LegendNANA
13:00 1.8 -9.5 43 0.0 23 18   102.44     LegendNANA
14:00 2.6 -9.8 39 0.0 21 14   102.36     LegendNANA
15:00 2.2 -11.9 35 0.0 22 19   102.32     LegendNANA
16:00 2.2 -13.2 31 0.0 21 19   102.27     LegendNANA
17:00 2.1 -10.2 40 0.0 23 18   102.23     LegendNANA
18:00 0.7 -5.8 62 0.0 24 16   102.22     LegendNANA
19:00 -1.0 -2.7 88 0.0 21 11   102.21   -5 LegendNANA
20:00 -0.9 -1.7 94 0.0 20 13   102.14   -5 LegendNANA
21:00 -0.4 -1.5 93 0.0 20 18   102.06   -5 LegendNANA
22:00 -0.5 -1.4 94 0.3 19 13   101.97   -5 LegendNANA
23:00 -0.4 -1.4 93 0.0 19 12   101.90   -4 LegendNANA

Notes on Data Quality.

Legend

  • E = Estimated
  • M = Missing
  • NA = Not Available*
  • [empty] = Indicates an unobserved value
Date modified: